Change the Weather History Date:

Friday, July 19, 2013

  Actual Average Record
Temperature  
Mean Temperature 77 °F 74 °F  
Max Temperature 94 °F 88 °F 105 °F (1960)
Min Temperature 60 °F 60 °F 41 °F (1972)
Degree Days  
Heating Degree Days 0 0  
Month to date heating degree days 0 12  
Since 1 June heating degree days 73 108  
Since 1 July heating degree days 0 12  
Cooling Degree Days 12 9  
Month to date cooling degree days 198 144  
Year to date cooling degree days 321 246  
Since 1 June cooling degree days 294 229  
Growing Degree Days 26 (Base 50)    
Moisture  
Dew Point 43 °F    
Average Humidity 31    
Maximum Humidity 51    
Minimum Humidity 10    
Precipitation  
Precipitation 0.00 in 0.04 in 0.67 in (1972)
Month to date precipitation 0.51 0.87  
Year to date precipitation 7.83 8.85  
Snow  
Snow 0.00 in 0.00 in 0.00 in (2002)
Month to date snowfall 0.0 0.0  
Since 1 June snowfall 0.0 0.0  
Since 1 July snowfall 0.0 0.0  
Snow Depth 0.00 in    
Sea Level Pressure  
Sea Level Pressure 29.95 in    
Wind  
Wind Speed 7 mph (North)    
Max Wind Speed 17 mph    
Max Gust Speed 21 mph    
Visibility 10 miles    
Events      
T = Trace of Precipitation, MM = Missing Value Source: NWS Daily Summary

Daily Weather History Graph

Daily Weather History Graph

Search for Another Location

Airport or City:

Trip Planner

Search our weather history database for the weather conditions in past years. The results will help you decide how hot, cold, wet, or windy it might be!

Date:

Astronomy

Jul. 19, 2013 Rise Set
Actual Time 5:43 AM MDT 8:57 PM MDT
Civil Twilight 5:06 AM MDT 9:33 PM MDT
Nautical Twilight 4:19 AM MDT 10:20 PM MDT
Astronomical Twilight 3:21 AM MDT 11:18 PM MDT
Moon 6:02 PM MDT (7/19) 2:28 AM MDT (7/19)
Length of Visible Light 16h 26m
Length of Day
15h 14m
Waxing Gibbous, 87% of the Moon is Illuminated
Jul 19
Waxing Gibbous
Jul 22
Full
Jul 29
Last Quarter
Aug 6
New
Aug 14
First Quarter

Hourly Weather History & Observations

Time (MDT) Temp. Dew Point Humidity Pressure Visibility Wind Dir Wind Speed Gust Speed Precip Events Conditions
12:53 AM 70.0 °F 44.1 °F 39% 30.03 in 10.0 mi ENE 11.5 mph - N/A   Clear
1:53 AM 66.9 °F 44.1 °F 44% 30.03 in 10.0 mi NNE 8.1 mph - N/A   Clear
2:53 AM 66.0 °F 44.1 °F 45% 30.03 in 10.0 mi North 9.2 mph - N/A   Clear
3:53 AM 66.0 °F 44.1 °F 45% 30.02 in 10.0 mi North 6.9 mph - N/A   Clear
4:53 AM 63.0 °F 43.0 °F 48% 30.03 in 10.0 mi North 3.5 mph - N/A   Clear
5:53 AM 60.1 °F 43.0 °F 53% 30.04 in 10.0 mi NW 4.6 mph - N/A   Clear
6:53 AM 64.9 °F 45.0 °F 48% 30.03 in 10.0 mi NW 6.9 mph - N/A   Clear
7:53 AM 69.1 °F 46.0 °F 44% 30.03 in 10.0 mi Calm Calm - N/A   Partly Cloudy
8:53 AM 73.9 °F 46.0 °F 37% 30.03 in 10.0 mi NNW 4.6 mph - N/A   Scattered Clouds
9:53 AM 75.0 °F 51.1 °F 43% 30.02 in 10.0 mi South 3.5 mph - N/A   Scattered Clouds
10:53 AM 77.0 °F 48.0 °F 36% 29.99 in 10.0 mi Variable 3.5 mph - N/A   Partly Cloudy
11:53 AM 81.0 °F 48.9 °F 33% 29.97 in 10.0 mi SW 8.1 mph - N/A   Partly Cloudy
12:53 PM 84.9 °F 48.9 °F 29% 29.95 in 10.0 mi SW 5.8 mph - N/A   Partly Cloudy
1:53 PM 87.1 °F 46.0 °F 24% 29.93 in 10.0 mi Calm Calm - N/A   Partly Cloudy
2:53 PM 89.1 °F 39.0 °F 17% 29.90 in 10.0 mi SW 6.9 mph - N/A   Partly Cloudy
3:53 PM 93.0 °F 42.1 °F 17% 29.87 in 10.0 mi NE 8.1 mph - N/A   Partly Cloudy
4:36 PM 91.0 °F 45.0 °F 20% 29.98 in 10.0 mi East 13.8 mph 20.7 mph N/A   Clear
4:53 PM 91.0 °F 44.1 °F 20% 29.87 in 10.0 mi East 9.2 mph 18.4 mph N/A   Partly Cloudy
5:53 PM 90.0 °F 43.0 °F 19% 29.86 in 10.0 mi East 8.1 mph 17.3 mph N/A   Partly Cloudy
6:53 PM 90.0 °F 42.1 °F 19% 29.84 in 10.0 mi East 8.1 mph - N/A   Clear
7:53 PM 90.0 °F 27.0 °F 10% 29.84 in 10.0 mi NNW 12.7 mph - N/A   Clear
8:53 PM 82.9 °F 39.0 °F 21% 29.86 in 10.0 mi NNE 10.4 mph - N/A   Clear
9:53 PM 79.0 °F 37.9 °F 23% 29.89 in 10.0 mi NNE 9.2 mph - N/A   Clear
10:53 PM 75.9 °F 39.9 °F 27% 29.91 in 10.0 mi North 9.2 mph - N/A   Clear
11:53 PM 73.9 °F 39.0 °F 28% 29.91 in 10.0 mi North 9.2 mph - N/A   Clear